Cape Byron Observation History
Time Wind Speed Temp Pressure Rel. Hum Rain
08/07:30am SW 15-19 kts 17.7°c 1019.2 hPa 97% 16.8mm
08/07:00am SW 15-18 kts 17.0°c 1018.8 hPa 100% 16.8mm
08/06:30am WSW 14-19 kts 16.9°c 1018.3 hPa 100% 16.6mm
08/06:00am SW 15-19 kts 16.8°c 1018.2 hPa 100% 16.6mm
08/05:30am SW 16-20 kts 16.7°c 1018.0 hPa 100% 16.6mm
08/05:00am SW 17-21 kts 16.7°c 1017.7 hPa 100% 16.6mm
08/04:30am SW 15-19 kts 16.7°c 1017.6 hPa 100% 16.6mm
08/04:00am WSW 12-15 kts 17.0°c 1017.4 hPa 100% 16.6mm
08/03:30am SW 15-18 kts 17.1°c 1017.3 hPa 100% 16.6mm
08/03:00am SW 12-16 kts 17.4°c 1017.2 hPa 100% 16.6mm
08/02:30am SW 10-15 kts 17.5°c 1017.5 hPa 100% 16.6mm
08/02:00am WSW 13-16 kts 17.4°c 1017.6 hPa 100% 16.2mm
08/01:30am SW 15-17 kts 17.6°c 1017.9 hPa 100% 16.2mm
08/01:00am SW 15-19 kts 17.9°c 1018.0 hPa 100% 16.2mm
08/12:30am SE 16-22 kts 21.0°c 1018.1 hPa 80% 16.2mm
08/12:13am SSE 12-22 kts 20.2°c 1017.8 hPa 89% 16.2mm
08/12:00am SSW 8-12 kts 18.4°c 1018.1 hPa 100% 16.2mm
Time Wind Speed Temp Pressure Rel. Hum Rain
07/11:30pm SW 11-21 kts 18.4°c 1018.2 hPa 100% 16.0mm
07/11:00pm SW 15-23 kts 18.4°c 1018.6 hPa 100% 16.0mm
07/10:30pm SW 9-14 kts 18.4°c 1018.6 hPa 100% 16.0mm
07/10:00pm SW 14-21 kts 18.8°c 1018.6 hPa 99% 16.0mm
07/09:30pm SSW 14-20 kts 18.8°c 1018.7 hPa 100% 16.0mm
07/09:00pm SW 12-18 kts 18.5°c 1018.6 hPa 100% 16.0mm
07/08:30pm SW 15-21 kts 18.4°c 1018.5 hPa 100% 16.0mm
07/08:00pm SW 16-22 kts 18.3°c 1018.1 hPa 100% 15.8mm
07/07:46pm SW 15-26 kts 18.5°c 1018.0 hPa 100% 15.6mm
07/07:30pm SW 12-18 kts 18.4°c 1018.0 hPa 100% 14.8mm
07/07:00pm SW 12-17 kts 18.4°c 1017.8 hPa 100% 10.6mm
07/06:30pm SE 18-23 kts 18.7°c 1017.5 hPa 100% 6.6mm
07/06:03pm SW 18-28 kts 18.9°c 1017.0 hPa 100% 2.2mm
07/06:00pm SW 17-22 kts 18.7°c 1016.9 hPa 100% 1.4mm
07/05:30pm S 11-17 kts 19.5°c 1016.9 hPa 95% 0.8mm
07/05:00pm S 12-21 kts 19.5°c 1016.7 hPa 100% 0.8mm
07/04:30pm SW 14-19 kts 18.9°c 1016.5 hPa 100% 0.4mm
07/04:00pm SSW 18-25 kts 19.6°c 1016.5 hPa 97% 0.0mm
07/03:30pm SW 17-22 kts 20.3°c 1016.4 hPa 96% 0.0mm
07/03:00pm SW 18-25 kts 20.2°c 1016.5 hPa 89% 0.0mm
07/02:30pm SW 15-22 kts 19.8°c 1016.8 hPa 97% 0.0mm
07/02:00pm SSW 18-22 kts 20.1°c 1016.8 hPa 91% 0.0mm
07/01:30pm SSW 22-29 kts 21.1°c 1016.6 hPa 81% 0.0mm
07/01:00pm SSW 21-26 kts 22.6°c 1016.8 hPa 75% 0.0mm
07/12:30pm SSW 26-33 kts 21.6°c 1017.1 hPa 81% 0.0mm
07/12:00pm SSW 24-30 kts 22.2°c 1017.7 hPa 73% 0.0mm
07/11:30am SSW 24-29 kts 21.9°c 1018.1 hPa 72% 0.0mm
07/11:00am SSW 22-27 kts 22.0°c 1018.4 hPa 73% 0.0mm
07/10:30am SSW 19-28 kts 21.9°c 1018.4 hPa 71% 0.0mm
07/10:00am SSW 19-29 kts 21.9°c 1018.5 hPa 74% 0.0mm
07/09:30am SW 18-23 kts 20.8°c 1018.6 hPa 77% 0.0mm
07/09:00am SW 17-23 kts 20.1°c 1018.7 hPa 77% 0.0mm
07/08:30am SW 13-18 kts 19.1°c 1018.6 hPa 82% 0.0mm
07/08:00am SW 16-19 kts 18.5°c 1018.2 hPa 82% 0.0mm
07/07:30am WSW 16-20 kts 18.0°c 1018.0 hPa 82% 0.0mm
07/07:00am WSW 15-20 kts 17.7°c 1017.5 hPa 83% 0.0mm
07/06:30am WSW 15-18 kts 17.9°c 1017.5 hPa 82% 0.0mm
07/06:00am WSW 17-21 kts 17.8°c 1017.2 hPa 82% 0.0mm
07/05:30am SW 16-20 kts 17.8°c 1016.8 hPa 84% 0.0mm
07/05:00am SW 17-20 kts 18.1°c 1016.5 hPa 83% 0.0mm
07/04:30am SW 15-18 kts 18.1°c 1016.3 hPa 81% 0.0mm
07/04:00am SW 14-17 kts 18.6°c 1016.3 hPa 78% 0.0mm
07/03:30am SW 14-17 kts 19.1°c 1016.3 hPa 75% 0.0mm
07/03:00am SW 13-17 kts 19.6°c 1016.3 hPa 76% 0.0mm
07/02:30am SW 11-15 kts 19.8°c 1016.4 hPa 75% 0.0mm
07/02:00am SW 12-17 kts 19.4°c 1016.8 hPa 80% 0.0mm
07/01:30am SW 12-16 kts 19.5°c 1016.9 hPa 78% 0.0mm
07/01:00am SW 12-15 kts 19.2°c 1017.1 hPa 81% 0.0mm
07/12:30am SW 11-13 kts 19.5°c 1017.4 hPa 76% 0.0mm
07/12:00am SW 9-12 kts 20.6°c 1017.5 hPa 69% 0.0mm
Time Wind Speed Temp Pressure Rel. Hum Rain
06/11:30pm S 13-17 kts 22.4°c 1017.6 hPa 63% 0.0mm
06/11:00pm SE 13-17 kts 22.5°c 1017.5 hPa 67% 0.0mm
06/10:30pm SE 15-19 kts 22.5°c 1017.6 hPa 65% 0.0mm
06/10:00pm SE 15-19 kts 22.5°c 1017.8 hPa 67% 0.0mm
06/09:30pm SE 13-18 kts 22.5°c 1017.9 hPa 62% 0.0mm
06/09:00pm SE 13-19 kts 22.5°c 1017.7 hPa 65% 0.0mm
06/08:30pm SE 14-19 kts 22.5°c 1017.5 hPa 67% 0.0mm
06/08:00pm ESE 16-20 kts 22.5°c 1017.2 hPa 67% 0.0mm
06/07:30pm SE 15-21 kts 22.6°c 1016.9 hPa 67% 0.0mm
06/07:00pm ESE 16-19 kts 22.7°c 1016.5 hPa 67% 0.0mm
06/06:30pm SE 15-18 kts 22.6°c 1016.2 hPa 67% 0.0mm
06/06:00pm S 12-16 kts 22.7°c 1015.9 hPa 65% 0.0mm
06/05:30pm S 14-17 kts 22.5°c 1015.8 hPa 71% 0.0mm
06/05:00pm S 15-18 kts 22.7°c 1015.5 hPa 70% 0.0mm
06/04:30pm S 15-18 kts 22.8°c 1015.4 hPa 68% 0.0mm
06/04:00pm S 15-19 kts 22.8°c 1015.4 hPa 70% 0.0mm
06/03:30pm S 17-20 kts 22.7°c 1015.5 hPa 68% 0.0mm
06/03:00pm S 17-20 kts 22.7°c 1015.4 hPa 64% 0.0mm
06/02:30pm S 16-19 kts 22.7°c 1015.6 hPa 63% 0.0mm
06/02:00pm SE 15-16 kts 22.9°c 1015.7 hPa 66% 0.0mm
06/01:30pm SSE 11-16 kts 23.1°c 1015.7 hPa 68% 0.0mm
06/01:00pm S 13-17 kts 23.0°c 1016.0 hPa 64% 0.0mm
06/12:30pm S 11-15 kts 23.0°c 1016.3 hPa 65% 0.0mm
06/12:00pm S 11-13 kts 23.1°c 1016.8 hPa 66% 0.0mm
06/11:30am S 11-14 kts 22.4°c 1017.2 hPa 67% 0.0mm
06/11:00am S 12-15 kts 22.3°c 1017.3 hPa 66% 0.0mm
06/10:30am S 10-13 kts 21.9°c 1017.5 hPa 67% 0.0mm
06/10:00am SSW 11-14 kts 21.5°c 1017.7 hPa 70% 0.0mm
06/09:30am SSW 9-12 kts 21.3°c 1017.9 hPa 70% 0.0mm
06/09:00am SW 7-10 kts 20.8°c 1017.9 hPa 74% 0.0mm
06/08:30am WSW 9-12 kts 19.4°c 1018.0 hPa 76% 0.0mm
06/08:00am SW 11-14 kts 18.4°c 1017.7 hPa 79% 0.0mm
06/07:30am WSW 10-13 kts 18.4°c 1017.5 hPa 79% 0.0mm
06/07:00am WSW 12-15 kts 17.4°c 1017.0 hPa 84% 0.0mm
06/06:30am WSW 11-15 kts 17.1°c 1016.6 hPa 84% 0.0mm
06/06:00am WSW 11-12 kts 18.3°c 1016.4 hPa 78% 0.0mm
06/05:30am WSW 11-13 kts 18.7°c 1016.2 hPa 76% 0.0mm
06/05:00am WSW 9-11 kts 18.7°c 1015.9 hPa 76% 0.0mm
06/04:30am WSW 8-10 kts 19.3°c 1015.6 hPa 75% 0.0mm
06/04:00am W 8-10 kts 19.4°c 1015.4 hPa 74% 0.0mm
06/03:30am WSW 7-9 kts 19.7°c 1015.3 hPa 74% 0.0mm
06/03:00am WSW 7-8 kts 20.2°c 1015.3 hPa 74% 0.0mm
06/02:30am SW 5-6 kts 20.4°c 1015.4 hPa 73% 0.0mm
06/02:00am WNW 3-4 kts 20.8°c 1015.4 hPa 71% 0.0mm
06/01:30am WNW 3-4 kts 20.8°c 1015.6 hPa 72% 0.0mm
06/01:00am CALM 0-3 kts 20.8°c 1015.8 hPa 72% 0.0mm
06/12:30am CALM 0 kts 20.9°c 1016.0 hPa 73% 0.0mm
06/12:00am NW 2-3 kts 20.8°c 1016.2 hPa 72% 0.0mm